Location: Bremen
(53.0793°N, 8.8017°E)
Time: 21:26:45
(UTC+02:00)

Envisat - Pass Details

Date: 02 March 2024
Orbit: 762 x 764 km, 98.3° (Epoch: 13 April)

Event Time Altitude Azimuth Distance (km) Brightness Sun altitude
Rises 05:40:47 0° 7° (N) 3,245 6.4 -14.0°
Reaches altitude 10° 05:43:35 10° 352° (N) 2,314 5.5 -13.6°
Maximum altitude 05:47:18 21° 305° (NW) 1,675 4.3 -13.0°
Enters shadow 05:49:06 17° 277° (W) 1,841 4.4 -12.8°
